When you browse on this site, cookies collect data to enhance your experience and personalize the content and advertising you see.
Visit our Privacy Policy to learn more. By continuing to use the site, you agree to this use of cookies and data.
EN

Hourly Weather Kambam

Today, 9 August, Sunday

Time Temperature Precipitation Wind Pressure Humidity
00:00 +25°C° 5 mm 1 mps 722 mmHg 94%
01:00 +25°C° 5 mm 1 mps 721 mmHg 94%
02:00 +25°C° 5 mm 2 mps 721 mmHg 94%
03:00 +25°C° 1 mm 2 mps 721 mmHg 93%
04:00 +25°C° 1 mm 2 mps 720 mmHg 92%
05:00 +25°C° 0 mm 2 mps 721 mmHg 91%
06:00 +25°C° 0.1 mm 2 mps 721 mmHg 90%
07:00 +26°C° 0.1 mm 2 mps 721 mmHg 88%
08:00 +26°C° 0.1 mm 2 mps 721 mmHg 87%
09:00 +26°C° 0.2 mm 2 mps 721 mmHg 87%
10:00 +26°C° 0.2 mm 2 mps 722 mmHg 87%
11:00 +26°C° 0.2 mm 2 mps 722 mmHg 87%
12:00 +26°C° 0.3 mm 3 mps 721 mmHg 85%
13:00 +27°C° 0.3 mm 3 mps 721 mmHg 83%
14:00 +27°C° 0.3 mm 3 mps 720 mmHg 81%
15:00 +27°C° 2.3 mm 3 mps 720 mmHg 84%
16:00 +26°C° 2.3 mm 3 mps 720 mmHg 87%
17:00 +26°C° 2.3 mm 3 mps 720 mmHg 89%
18:00 +26°C° 2.8 mm 3 mps 720 mmHg 90%
19:00 +25°C° 2.8 mm 3 mps 721 mmHg 90%
20:00 +25°C° 2.8 mm 3 mps 721 mmHg 91%
21:00 +25°C° 0.2 mm 3 mps 721 mmHg 90%
22:00 +25°C° 0.2 mm 3 mps 722 mmHg 90%
23:00 +25°C° 0.2 mm 2 mps 722 mmHg 89%

Tomorrow, 10 August, Monday

Time Temperature Precipitation Wind Pressure Humidity
00:00 +25°C° 0 mm 3 mps 721 mmHg 89%
01:00 +25°C° 0 mm 3 mps 721 mmHg 88%
02:00 +24°C° 0 mm 3 mps 720 mmHg 87%
03:00 +24°C° 0 mm 3 mps 720 mmHg 87%
04:00 +24°C° 0 mm 3 mps 720 mmHg 87%
05:00 +24°C° 0 mm 3 mps 720 mmHg 86%
06:00 +25°C° 0 mm 3 mps 721 mmHg 85%
07:00 +25°C° 0 mm 3 mps 721 mmHg 84%
08:00 +26°C° 0 mm 3 mps 722 mmHg 83%
09:00 +27°C° 0 mm 3 mps 722 mmHg 80%
10:00 +28°C° 0 mm 3 mps 722 mmHg 77%
11:00 +29°C° 0 mm 3 mps 722 mmHg 73%
12:00 +29°C° 0.3 mm 3 mps 722 mmHg 72%
13:00 +30°C° 0.3 mm 3 mps 721 mmHg 71%
14:00 +30°C° 0.3 mm 3 mps 721 mmHg 70%
15:00 +29°C° 0.2 mm 3 mps 720 mmHg 73%
16:00 +28°C° 0.2 mm 3 mps 720 mmHg 76%
17:00 +28°C° 0.2 mm 3 mps 720 mmHg 79%
18:00 +27°C° 0 mm 3 mps 721 mmHg 81%
19:00 +26°C° 0 mm 3 mps 721 mmHg 83%
20:00 +26°C° 0 mm 3 mps 722 mmHg 85%
21:00 +26°C° 0 mm 3 mps 722 mmHg 85%
22:00 +25°C° 0 mm 3 mps 722 mmHg 86%
23:00 +25°C° 0 mm 3 mps 722 mmHg 86%

Day after tomorrow, 11 August, Tuesday

Time Temperature Precipitation Wind Pressure Humidity
00:00 +25°C° 0 mm 3 mps 722 mmHg 86%
01:00 +25°C° 0 mm 2 mps 721 mmHg 86%
02:00 +25°C° 0 mm 2 mps 721 mmHg 87%
03:00 +25°C° 0 mm 2 mps 721 mmHg 87%
04:00 +25°C° 0 mm 2 mps 721 mmHg 87%
05:00 +25°C° 0 mm 2 mps 721 mmHg 87%
06:00 +26°C° 0 mm 2 mps 721 mmHg 85%
07:00 +26°C° 0 mm 2 mps 722 mmHg 83%
08:00 +27°C° 0 mm 3 mps 722 mmHg 81%
09:00 +28°C° 0.1 mm 3 mps 722 mmHg 76%
10:00 +29°C° 0.1 mm 3 mps 723 mmHg 72%
11:00 +30°C° 0.1 mm 3 mps 723 mmHg 67%
12:00 +30°C° 0.2 mm 3 mps 722 mmHg 66%
13:00 +31°C° 0.2 mm 3 mps 722 mmHg 66%
14:00 +31°C° 0.2 mm 3 mps 721 mmHg 65%
15:00 +30°C° 0.2 mm 3 mps 721 mmHg 69%
16:00 +29°C° 0.2 mm 3 mps 721 mmHg 74%
17:00 +28°C° 0.2 mm 3 mps 721 mmHg 78%
18:00 +27°C° 0.1 mm 3 mps 721 mmHg 80%
19:00 +27°C° 0.1 mm 3 mps 722 mmHg 82%
20:00 +26°C° 0.1 mm 3 mps 723 mmHg 84%
21:00 +26°C° 0 mm 3 mps 723 mmHg 84%
22:00 +26°C° 0 mm 3 mps 723 mmHg 85%
23:00 +26°C° 0 mm 3 mps 723 mmHg 85%

12 August, Wednesday

Time Temperature Precipitation Wind Pressure Humidity
00:00 +26°C° 0 mm 2 mps 723 mmHg 85%
01:00 +25°C° 0 mm 2 mps 722 mmHg 85%
02:00 +25°C° 0 mm 2 mps 721 mmHg 86%
03:00 +25°C° 0 mm 2 mps 721 mmHg 86%
04:00 +25°C° 0 mm 2 mps 722 mmHg 87%
05:00 +25°C° 0 mm 2 mps 722 mmHg 87%
06:00 +25°C° 0 mm 3 mps 722 mmHg 84%
07:00 +26°C° 0 mm 3 mps 723 mmHg 80%
08:00 +27°C° 0 mm 3 mps 723 mmHg 77%
09:00 +29°C° 0 mm 3 mps 723 mmHg 71%
10:00 +30°C° 0 mm 3 mps 723 mmHg 66%
11:00 +33°C° 0 mm 3 mps 724 mmHg 60%
12:00 +33°C° 0 mm 4 mps 723 mmHg 59%
13:00 +33°C° 0 mm 4 mps 722 mmHg 58%
14:00 +33°C° 0 mm 4 mps 721 mmHg 57%
15:00 +33°C° 0 mm 4 mps 721 mmHg 60%
16:00 +32°C° 0 mm 4 mps 721 mmHg 64%
17:00 +30°C° 0 mm 4 mps 721 mmHg 68%
18:00 +29°C° 0 mm 3 mps 721 mmHg 73%
19:00 +28°C° 0 mm 3 mps 722 mmHg 77%
20:00 +26°C° 0 mm 3 mps 722 mmHg 82%
21:00 +26°C° 0 mm 3 mps 723 mmHg 82%
22:00 +26°C° 0 mm 2 mps 723 mmHg 81%
23:00 +26°C° 0 mm 2 mps 723 mmHg 81%

13 August, Thursday

Time Temperature Precipitation Wind Pressure Humidity
00:00 +25°C° 0 mm 2 mps 722 mmHg 81%
01:00 +25°C° 0 mm 2 mps 722 mmHg 80%
02:00 +25°C° 0 mm 2 mps 721 mmHg 80%
03:00 +25°C° 0 mm 2 mps 721 mmHg 80%
04:00 +24°C° 0 mm 2 mps 721 mmHg 81%
05:00 +24°C° 0 mm 2 mps 721 mmHg 82%
06:00 +25°C° 0 mm 2 mps 722 mmHg 78%
07:00 +26°C° 0 mm 3 mps 722 mmHg 75%
08:00 +28°C° 0 mm 3 mps 723 mmHg 71%
09:00 +29°C° 0 mm 3 mps 723 mmHg 65%
10:00 +31°C° 0 mm 3 mps 723 mmHg 58%
11:00 +33°C° 0 mm 3 mps 722 mmHg 52%
12:00 +34°C° 0 mm 3 mps 722 mmHg 51%
13:00 +34°C° 0 mm 3 mps 721 mmHg 51%
14:00 +35°C° 0 mm 3 mps 720 mmHg 50%
15:00 +33°C° 0.1 mm 3 mps 720 mmHg 56%
16:00 +31°C° 0.1 mm 3 mps 720 mmHg 62%
17:00 +30°C° 0.1 mm 3 mps 720 mmHg 68%
18:00 +29°C° 0.1 mm 3 mps 720 mmHg 73%
19:00 +28°C° 0.1 mm 3 mps 721 mmHg 77%
20:00 +27°C° 0.1 mm 3 mps 721 mmHg 82%
21:00 +27°C° 0 mm 3 mps 721 mmHg 82%
22:00 +26°C° 0 mm 3 mps 722 mmHg 83%
23:00 +26°C° 0 mm 3 mps 722 mmHg 83%

14 August, Friday

Time Temperature Precipitation Wind Pressure Humidity
00:00 +25°C° 0 mm 3 mps 721 mmHg 83%
01:00 +25°C° 0 mm 3 mps 721 mmHg 84%
02:00 +25°C° 0 mm 3 mps 720 mmHg 84%
03:00 +25°C° 0 mm 3 mps 720 mmHg 84%
04:00 +25°C° 0 mm 3 mps 720 mmHg 84%
05:00 +25°C° 0 mm 3 mps 720 mmHg 85%
06:00 +26°C° 0 mm 3 mps 721 mmHg 81%
07:00 +27°C° 0 mm 3 mps 721 mmHg 78%
08:00 +28°C° 0 mm 3 mps 722 mmHg 75%
09:00 +29°C° 0 mm 3 mps 722 mmHg 69%
10:00 +30°C° 0 mm 3 mps 722 mmHg 63%
11:00 +33°C° 0 mm 3 mps 722 mmHg 57%
12:00 +33°C° 0 mm 3 mps 721 mmHg 56%
13:00 +34°C° 0 mm 3 mps 721 mmHg 55%
14:00 +34°C° 0 mm 4 mps 720 mmHg 55%
15:00 +33°C° 0.1 mm 3 mps 720 mmHg 60%
16:00 +31°C° 0.1 mm 3 mps 720 mmHg 64%
17:00 +30°C° 0.1 mm 3 mps 719 mmHg 69%
18:00 +29°C° 0 mm 3 mps 720 mmHg 74%
19:00 +28°C° 0 mm 3 mps 720 mmHg 79%
20:00 +26°C° 0 mm 3 mps 721 mmHg 84%
21:00 +26°C° 0 mm 3 mps 721 mmHg 84%
22:00 +26°C° 0 mm 3 mps 721 mmHg 84%
23:00 +26°C° 0 mm 3 mps 721 mmHg 84%
Show more